GFSNIL_prec_precacc_153.txt.gz
Total_Precipitation_Accumulation
0.21 0.22 0.25 0.21 0.24 0.25 0.69 1.32 1.96 1.59 1.42 1.62 1.42 1.75 1.98 1.97 2.09 2.13 2.12 2.06 1.50 1.08
0.39 0.34 0.33 0.35 0.47 0.49 0.67 1.09 1.98 2.69 2.44 2.28 2.46 2.08 2.32 2.47 2.28 2.29 2.17 1.77 1.80 1.37
0.47 0.53 0.48 0.59 1.08 1.47 1.08 1.38 1.50 2.14 3.04 3.26 3.13 3.16 2.87 2.78 2.40 2.28 2.09 1.87 1.73 1.44
0.87 1.17 1.21 1.22 1.79 2.09 1.74 1.88 2.51 2.35 2.32 2.72 2.76 3.30 3.36 2.87 2.59 2.35 2.07 1.74 1.55 1.25
1.10 1.56 2.03 2.21 2.37 3.12 3.51 2.82 2.83 2.68 2.04 1.91 1.94 2.20 3.04 2.90 2.36 2.14 1.83 1.49 1.30 1.21
1.90 1.76 1.92 1.90 1.90 2.16 2.63 2.34 2.57 2.44 2.17 1.75 1.51 1.44 1.49 2.26 2.40 1.83 1.64 1.56 1.42 1.20
1.29 1.66 1.81 2.00 2.06 2.50 2.40 2.54 2.72 2.91 1.89 1.42 1.20 0.99 0.92 0.98 1.48 1.81 1.48 1.58 1.56 1.38
0.86 1.01 1.01 1.14 1.38 1.53 1.82 2.13 2.57 2.71 2.19 1.45 1.25 1.12 0.91 0.89 0.94 1.30 1.66 1.49 1.43 1.43
0.66 0.65 0.74 0.77 0.85 0.86 0.94 0.98 1.19 1.60 2.22 2.14 1.61 1.74 1.35 0.99 0.91 0.99 1.21 1.89 1.74 1.40
0.55 0.66 0.52 0.53 0.54 0.59 0.66 0.91 0.92 0.86 1.10 1.52 1.49 2.24 2.16 2.11 1.09 1.09 1.16 1.26 1.89 1.80
0.45 0.33 0.33 0.36 0.49 0.52 0.66 0.66 0.64 0.78 0.75 0.74 1.04 1.67 1.84 2.83 2.60 1.60 1.39 1.58 1.56 1.85
0.40 0.49 0.57 0.41 0.40 0.43 0.53 0.66 0.65 0.58 0.49 0.52 0.56 0.95 1.17 1.49 1.87 2.27 2.29 1.64 1.54 1.54
0.67 0.50 0.35 0.32 0.36 0.44 0.45 0.50 0.54 0.67 0.77 0.87 0.60 0.97 0.96 1.26 1.25 1.25 1.55 2.34 1.96 1.96
0.66 0.61 0.56 0.43 0.31 0.35 0.50 0.62 0.66 0.66 0.60 0.70 0.82 0.96 1.12 1.09 1.13 1.34 1.19 1.06 1.36 1.49

GFSNIL_prec_precacc_156.txt.gz
Total_Precipitation_Accumulation
0.21 0.22 0.25 0.21 0.24 0.25 0.69 1.32 1.96 1.59 1.42 1.62 1.42 1.75 1.99 1.98 2.09 2.14 2.14 2.11 1.86 1.62
0.39 0.34 0.33 0.35 0.47 0.49 0.67 1.09 1.98 2.69 2.44 2.28 2.46 2.09 2.33 2.48 2.29 2.29 2.19 1.81 2.01 1.92
0.47 0.53 0.48 0.59 1.08 1.47 1.08 1.38 1.50 2.14 3.04 3.26 3.14 3.18 2.91 2.82 2.43 2.30 2.11 1.88 1.78 1.65
0.87 1.17 1.21 1.22 1.79 2.09 1.74 1.88 2.51 2.36 2.35 2.73 2.77 3.32 3.39 2.92 2.65 2.38 2.09 1.75 1.56 1.27
1.10 1.56 2.03 2.21 2.37 3.12 3.51 2.82 2.86 2.74 2.09 1.93 1.95 2.21 3.06 2.92 2.39 2.20 1.86 1.50 1.31 1.22
1.90 1.76 1.92 1.90 1.90 2.16 2.63 2.34 2.58 2.48 2.23 1.82 1.55 1.50 1.56 2.28 2.41 1.84 1.66 1.56 1.42 1.20
1.29 1.66 1.81 2.00 2.06 2.50 2.40 2.54 2.72 2.93 1.92 1.46 1.29 1.13 1.03 1.02 1.49 1.82 1.48 1.58 1.56 1.38
0.86 1.01 1.01 1.14 1.38 1.53 1.82 2.13 2.57 2.72 2.23 1.49 1.36 1.28 1.07 0.99 0.96 1.30 1.66 1.49 1.43 1.43
0.66 0.65 0.74 0.77 0.85 0.86 0.94 0.98 1.19 1.60 2.24 2.21 1.70 1.88 1.53 1.12 0.95 0.99 1.22 1.90 1.74 1.40
0.55 0.66 0.52 0.53 0.54 0.59 0.66 0.92 0.92 0.86 1.11 1.55 1.56 2.36 2.33 2.25 1.16 1.11 1.17 1.26 1.90 1.81
0.46 0.33 0.33 0.36 0.49 0.52 0.66 0.66 0.65 0.79 0.76 0.76 1.05 1.71 1.95 3.01 2.77 1.70 1.42 1.59 1.57 1.86
0.40 0.49 0.57 0.41 0.40 0.43 0.53 0.66 0.65 0.58 0.49 0.54 0.57 0.96 1.23 1.65 2.15 2.57 2.43 1.68 1.57 1.57
0.67 0.50 0.36 0.32 0.36 0.44 0.45 0.50 0.54 0.67 0.77 0.88 0.61 0.98 1.00 1.46 1.56 1.70 1.95 2.53 2.03 2.03
0.66 0.61 0.56 0.43 0.31 0.35 0.50 0.62 0.66 0.66 0.61 0.70 0.83 0.99 1.16 1.19 1.34 1.79 1.72 1.45 1.64 1.67

GFSNIL_prec_precacc_159.txt.gz
Total_Precipitation_Accumulation
0.21 0.22 0.25 0.21 0.24 0.25 0.69 1.32 1.96 1.59 1.42 1.62 1.42 1.76 2.00 1.98 2.10 2.15 2.14 2.11 1.86 1.63
0.39 0.34 0.33 0.35 0.47 0.49 0.67 1.09 1.98 2.69 2.44 2.28 2.47 2.09 2.34 2.49 2.29 2.30 2.20 1.82 2.01 1.93
0.47 0.53 0.48 0.59 1.08 1.47 1.08 1.38 1.50 2.14 3.04 3.26 3.14 3.18 2.91 2.83 2.43 2.31 2.11 1.89 1.78 1.66
0.87 1.17 1.21 1.22 1.79 2.09 1.74 1.88 2.51 2.36 2.35 2.73 2.77 3.32 3.39 2.92 2.65 2.40 2.11 1.77 1.59 1.30
1.10 1.56 2.03 2.21 2.37 3.12 3.51 2.82 2.86 2.74 2.09 1.93 1.95 2.21 3.06 2.93 2.40 2.22 1.91 1.54 1.37 1.27
1.90 1.76 1.92 1.90 1.90 2.16 2.63 2.34 2.58 2.48 2.23 1.82 1.55 1.51 1.58 2.34 2.45 1.86 1.67 1.60 1.48 1.28
1.29 1.66 1.81 2.00 2.06 2.50 2.40 2.54 2.72 2.93 1.92 1.46 1.29 1.13 1.04 1.05 1.52 1.83 1.49 1.58 1.58 1.42
0.86 1.01 1.01 1.14 1.38 1.53 1.82 2.13 2.57 2.72 2.23 1.49 1.36 1.29 1.09 1.03 1.01 1.35 1.69 1.51 1.44 1.44
0.66 0.65 0.74 0.77 0.85 0.86 0.94 0.98 1.19 1.60 2.24 2.21 1.70 1.89 1.54 1.17 1.03 1.08 1.32 1.97 1.77 1.41
0.55 0.66 0.52 0.53 0.54 0.59 0.66 0.92 0.92 0.86 1.11 1.55 1.56 2.37 2.34 2.27 1.19 1.17 1.26 1.35 1.95 1.81
0.46 0.33 0.33 0.36 0.49 0.52 0.66 0.66 0.65 0.79 0.76 0.76 1.05 1.71 1.95 3.01 2.79 1.74 1.48 1.65 1.62 1.89
0.41 0.49 0.57 0.41 0.40 0.43 0.53 0.66 0.65 0.58 0.49 0.54 0.57 0.96 1.24 1.67 2.17 2.60 2.49 1.75 1.63 1.64
0.67 0.50 0.36 0.32 0.36 0.44 0.45 0.51 0.54 0.67 0.77 0.88 0.62 0.99 1.01 1.48 1.61 1.74 2.06 2.69 2.13 2.12
0.66 0.61 0.56 0.43 0.31 0.35 0.50 0.62 0.66 0.66 0.61 0.70 0.83 0.99 1.17 1.21 1.40 1.89 1.84 1.66 1.90 1.83

GFSNIL_prec_precacc_162.txt.gz
Total_Precipitation_Accumulation
0.21 0.22 0.25 0.21 0.24 0.25 0.69 1.32 1.96 1.59 1.42 1.62 1.42 1.76 2.00 1.99 2.10 2.15 2.15 2.12 1.87 1.64
0.39 0.34 0.33 0.35 0.47 0.49 0.67 1.09 1.98 2.69 2.44 2.28 2.47 2.09 2.34 2.49 2.30 2.30 2.21 1.82 2.02 1.93
0.47 0.53 0.48 0.59 1.08 1.47 1.08 1.38 1.50 2.14 3.04 3.26 3.14 3.18 2.91 2.83 2.44 2.31 2.12 1.89 1.79 1.66
0.87 1.17 1.21 1.22 1.79 2.09 1.74 1.88 2.51 2.36 2.35 2.73 2.77 3.32 3.40 2.93 2.65 2.40 2.11 1.77 1.59 1.31
1.10 1.56 2.03 2.21 2.37 3.12 3.51 2.82 2.86 2.74 2.09 1.93 1.95 2.21 3.06 2.93 2.40 2.22 1.91 1.54 1.37 1.27
1.90 1.76 1.92 1.90 1.90 2.16 2.63 2.34 2.58 2.48 2.23 1.83 1.55 1.51 1.58 2.34 2.45 1.86 1.68 1.60 1.48 1.28
1.29 1.66 1.81 2.00 2.06 2.50 2.40 2.54 2.72 2.93 1.92 1.47 1.30 1.13 1.05 1.05 1.52 1.83 1.49 1.59 1.58 1.42
0.86 1.01 1.01 1.14 1.38 1.53 1.82 2.13 2.57 2.72 2.23 1.49 1.37 1.29 1.10 1.03 1.01 1.35 1.69 1.51 1.45 1.44
0.66 0.65 0.74 0.77 0.85 0.86 0.94 0.98 1.19 1.60 2.24 2.21 1.70 1.89 1.55 1.17 1.04 1.08 1.32 1.97 1.79 1.43
0.55 0.66 0.52 0.53 0.54 0.59 0.66 0.92 0.92 0.86 1.11 1.55 1.56 2.37 2.34 2.27 1.19 1.17 1.26 1.35 1.96 1.84
0.46 0.34 0.33 0.36 0.49 0.52 0.66 0.67 0.65 0.79 0.76 0.76 1.06 1.71 1.95 3.02 2.79 1.74 1.48 1.65 1.62 1.90
0.41 0.49 0.57 0.41 0.40 0.44 0.54 0.66 0.65 0.58 0.50 0.54 0.57 0.96 1.24 1.68 2.18 2.60 2.49 1.76 1.64 1.65
0.67 0.51 0.36 0.32 0.36 0.45 0.45 0.51 0.54 0.67 0.77 0.88 0.62 0.99 1.01 1.50 1.62 1.75 2.07 2.69 2.14 2.14
0.67 0.62 0.56 0.43 0.31 0.35 0.50 0.62 0.67 0.66 0.61 0.70 0.83 1.00 1.17 1.22 1.44 1.94 1.86 1.68 1.91 1.86

GFSNIL_prec_precacc_168.txt.gz
Total_Precipitation_Accumulation
0.21 0.22 0.25 0.21 0.24 0.25 0.69 1.32 1.96 1.59 1.42 1.62 1.42 1.76 2.00 1.99 2.10 2.15 2.15 2.12 1.87 1.65
0.39 0.34 0.33 0.35 0.47 0.49 0.67 1.09 1.98 2.69 2.44 2.28 2.47 2.09 2.34 2.49 2.30 2.31 2.21 1.83 2.02 1.94
0.47 0.53 0.48 0.59 1.08 1.47 1.08 1.38 1.50 2.14 3.04 3.26 3.14 3.18 2.91 2.83 2.44 2.31 2.12 1.90 1.80 1.66
0.87 1.17 1.21 1.22 1.79 2.09 1.74 1.88 2.51 2.36 2.35 2.73 2.77 3.32 3.40 2.93 2.65 2.41 2.12 1.77 1.60 1.31
1.10 1.56 2.03 2.21 2.37 3.12 3.51 2.82 2.86 2.74 2.09 1.93 1.95 2.21 3.07 2.93 2.40 2.22 1.92 1.55 1.37 1.27
1.90 1.76 1.92 1.90 1.90 2.16 2.63 2.34 2.58 2.48 2.23 1.83 1.55 1.51 1.59 2.34 2.45 1.86 1.68 1.61 1.49 1.28
1.29 1.66 1.81 2.00 2.06 2.50 2.40 2.54 2.72 2.93 1.92 1.47 1.30 1.14 1.05 1.05 1.52 1.84 1.49 1.59 1.58 1.42
0.86 1.01 1.01 1.14 1.38 1.53 1.82 2.13 2.57 2.72 2.23 1.49 1.37 1.29 1.10 1.04 1.02 1.36 1.69 1.52 1.46 1.45
0.66 0.65 0.74 0.77 0.85 0.86 0.94 0.98 1.19 1.60 2.24 2.21 1.70 1.89 1.55 1.18 1.05 1.09 1.33 1.98 1.79 1.44
0.55 0.66 0.52 0.53 0.54 0.59 0.66 0.92 0.92 0.86 1.11 1.56 1.57 2.37 2.34 2.27 1.20 1.18 1.27 1.36 1.97 1.84
0.46 0.34 0.33 0.36 0.49 0.52 0.66 0.67 0.65 0.79 0.76 0.76 1.06 1.71 1.96 3.02 2.80 1.75 1.48 1.66 1.63 1.91
0.41 0.49 0.57 0.41 0.40 0.44 0.54 0.66 0.65 0.58 0.50 0.55 0.58 0.97 1.25 1.68 2.19 2.61 2.50 1.76 1.64 1.66
0.67 0.51 0.36 0.32 0.36 0.45 0.45 0.51 0.54 0.67 0.78 0.89 0.62 0.99 1.01 1.51 1.64 1.77 2.08 2.70 2.14 2.15
0.67 0.62 0.56 0.43 0.31 0.35 0.50 0.62 0.67 0.66 0.61 0.71 0.84 1.00 1.18 1.22 1.46 1.99 1.89 1.69 1.93 1.87

GFSNIL_prec_precacc_171.txt.gz
Total_Precipitation_Accumulation
0.21 0.22 0.25 0.21 0.24 0.25 0.69 1.32 1.96 1.59 1.42 1.62 1.42 1.76 2.00 1.99 2.10 2.16 2.15 2.12 1.88 1.66
0.39 0.34 0.33 0.35 0.47 0.49 0.67 1.09 1.98 2.69 2.44 2.28 2.47 2.09 2.34 2.49 2.30 2.31 2.21 1.83 2.02 1.94
0.47 0.53 0.48 0.59 1.08 1.47 1.08 1.38 1.50 2.14 3.04 3.26 3.14 3.18 2.91 2.83 2.44 2.31 2.12 1.90 1.80 1.66
0.87 1.17 1.21 1.22 1.79 2.09 1.74 1.88 2.51 2.36 2.35 2.73 2.77 3.32 3.40 2.93 2.65 2.41 2.12 1.77 1.60 1.31
1.10 1.56 2.03 2.21 2.37 3.12 3.51 2.82 2.86 2.74 2.09 1.93 1.95 2.21 3.07 2.93 2.40 2.22 1.92 1.55 1.37 1.27
1.90 1.76 1.92 1.90 1.90 2.16 2.63 2.34 2.58 2.48 2.23 1.83 1.55 1.51 1.59 2.34 2.45 1.86 1.68 1.61 1.49 1.28
1.29 1.66 1.81 2.00 2.06 2.50 2.40 2.54 2.72 2.93 1.92 1.47 1.30 1.14 1.05 1.05 1.52 1.84 1.49 1.59 1.59 1.42
0.86 1.01 1.01 1.14 1.38 1.53 1.82 2.13 2.57 2.72 2.23 1.49 1.37 1.30 1.10 1.04 1.02 1.36 1.69 1.52 1.46 1.45
0.66 0.65 0.74 0.77 0.85 0.86 0.94 0.98 1.19 1.60 2.24 2.21 1.71 1.90 1.55 1.18 1.05 1.09 1.33 1.98 1.79 1.44
0.55 0.66 0.52 0.53 0.54 0.59 0.66 0.92 0.92 0.86 1.11 1.56 1.57 2.37 2.34 2.28 1.20 1.18 1.27 1.36 1.97 1.85
0.46 0.34 0.33 0.36 0.49 0.52 0.66 0.67 0.65 0.79 0.76 0.76 1.06 1.71 1.96 3.02 2.80 1.75 1.49 1.66 1.63 1.92
0.41 0.49 0.57 0.41 0.40 0.44 0.54 0.66 0.65 0.58 0.50 0.55 0.58 0.97 1.25 1.69 2.19 2.61 2.50 1.76 1.64 1.66
0.67 0.51 0.36 0.32 0.36 0.45 0.45 0.51 0.54 0.67 0.78 0.89 0.62 0.99 1.01 1.51 1.65 1.77 2.08 2.70 2.14 2.15
0.67 0.62 0.56 0.43 0.31 0.35 0.50 0.62 0.67 0.66 0.61 0.71 0.84 1.00 1.18 1.22 1.47 2.01 1.90 1.69 1.93 1.87

GFSNIL_prec_precacc_177.txt.gz
Total_Precipitation_Accumulation
0.21 0.22 0.25 0.21 0.24 0.25 0.69 1.32 1.96 1.59 1.42 1.62 1.42 1.76 2.00 1.99 2.10 2.16 2.15 2.12 1.88 1.66
0.39 0.34 0.33 0.35 0.47 0.49 0.67 1.09 1.98 2.69 2.44 2.28 2.47 2.09 2.34 2.49 2.30 2.31 2.21 1.83 2.02 1.94
0.47 0.53 0.48 0.59 1.08 1.47 1.08 1.38 1.50 2.14 3.04 3.26 3.14 3.18 2.91 2.83 2.44 2.31 2.12 1.90 1.80 1.66
0.87 1.17 1.21 1.22 1.79 2.09 1.74 1.88 2.51 2.36 2.35 2.73 2.77 3.32 3.40 2.93 2.65 2.41 2.12 1.77 1.60 1.31
1.10 1.56 2.03 2.21 2.37 3.12 3.51 2.82 2.86 2.74 2.09 1.93 1.95 2.21 3.07 2.93 2.40 2.22 1.92 1.55 1.37 1.27
1.90 1.76 1.92 1.90 1.90 2.16 2.63 2.34 2.58 2.48 2.23 1.83 1.55 1.51 1.59 2.34 2.45 1.86 1.68 1.61 1.49 1.29
1.29 1.66 1.81 2.00 2.06 2.50 2.40 2.54 2.72 2.93 1.93 1.47 1.30 1.14 1.05 1.05 1.52 1.84 1.49 1.59 1.59 1.43
0.86 1.01 1.01 1.14 1.38 1.53 1.82 2.13 2.57 2.72 2.23 1.50 1.37 1.30 1.10 1.04 1.02 1.36 1.69 1.52 1.46 1.45
0.66 0.65 0.74 0.77 0.85 0.86 0.94 0.98 1.19 1.60 2.24 2.21 1.72 1.90 1.55 1.18 1.05 1.09 1.33 1.98 1.79 1.44
0.55 0.66 0.52 0.53 0.54 0.59 0.66 0.92 0.92 0.86 1.11 1.56 1.57 2.37 2.34 2.28 1.20 1.18 1.27 1.36 1.97 1.85
0.46 0.34 0.33 0.36 0.49 0.52 0.66 0.67 0.65 0.79 0.76 0.76 1.06 1.71 1.96 3.02 2.80 1.75 1.49 1.66 1.63 1.92
0.41 0.49 0.57 0.41 0.40 0.44 0.54 0.66 0.65 0.58 0.50 0.55 0.58 0.97 1.25 1.69 2.19 2.61 2.50 1.76 1.64 1.67
0.67 0.51 0.36 0.32 0.36 0.45 0.45 0.51 0.54 0.67 0.78 0.89 0.62 0.99 1.02 1.51 1.65 1.78 2.08 2.70 2.14 2.15
0.67 0.62 0.56 0.43 0.31 0.35 0.50 0.62 0.67 0.66 0.61 0.71 0.84 1.00 1.18 1.23 1.47 2.02 1.91 1.69 1.93 1.87

GFSNIL_prec_precacc_183.txt.gz
Total_Precipitation_Accumulation
0.21 0.22 0.25 0.21 0.24 0.25 0.69 1.32 1.96 1.59 1.42 1.62 1.42 1.76 2.00 1.99 2.10 2.16 2.15 2.12 1.88 1.66
0.39 0.34 0.33 0.35 0.47 0.49 0.67 1.09 1.98 2.69 2.44 2.28 2.47 2.09 2.34 2.49 2.30 2.31 2.21 1.83 2.02 1.94
0.47 0.53 0.48 0.59 1.08 1.47 1.08 1.38 1.50 2.14 3.04 3.26 3.14 3.18 2.91 2.83 2.44 2.31 2.12 1.90 1.80 1.66
0.88 1.17 1.21 1.22 1.79 2.09 1.74 1.88 2.51 2.36 2.35 2.73 2.77 3.32 3.40 2.93 2.65 2.41 2.12 1.77 1.60 1.31
1.11 1.57 2.04 2.22 2.38 3.13 3.52 2.82 2.86 2.74 2.09 1.93 1.95 2.21 3.07 2.93 2.40 2.22 1.92 1.55 1.37 1.27
1.92 1.78 1.93 1.91 1.91 2.16 2.63 2.34 2.58 2.48 2.23 1.83 1.55 1.51 1.59 2.34 2.45 1.86 1.68 1.61 1.49 1.29
1.33 1.68 1.82 2.00 2.06 2.50 2.40 2.54 2.72 2.93 1.93 1.47 1.30 1.14 1.05 1.05 1.52 1.84 1.49 1.59 1.59 1.43
0.87 1.01 1.01 1.14 1.38 1.53 1.82 2.13 2.57 2.72 2.23 1.50 1.37 1.30 1.10 1.04 1.02 1.36 1.69 1.52 1.46 1.45
0.66 0.65 0.74 0.77 0.85 0.86 0.94 0.98 1.19 1.60 2.24 2.21 1.72 1.90 1.55 1.18 1.05 1.09 1.33 1.98 1.79 1.44
0.55 0.66 0.52 0.53 0.54 0.59 0.66 0.92 0.92 0.86 1.11 1.56 1.57 2.37 2.34 2.28 1.20 1.18 1.27 1.36 1.97 1.85
0.48 0.36 0.35 0.36 0.49 0.52 0.66 0.67 0.65 0.79 0.76 0.76 1.06 1.71 1.96 3.02 2.80 1.75 1.49 1.66 1.63 1.92
0.49 0.55 0.60 0.41 0.40 0.44 0.54 0.66 0.65 0.58 0.50 0.55 0.58 0.97 1.25 1.69 2.19 2.61 2.50 1.76 1.64 1.67
0.75 0.54 0.37 0.32 0.36 0.45 0.45 0.51 0.54 0.67 0.78 0.89 0.62 0.99 1.02 1.51 1.65 1.78 2.08 2.70 2.14 2.15
0.72 0.62 0.56 0.43 0.31 0.35 0.50 0.62 0.67 0.66 0.61 0.71 0.84 1.00 1.19 1.23 1.47 2.02 1.91 1.69 1.93 1.87

GFSNIL_prec_precacc_189.txt.gz
Total_Precipitation_Accumulation
0.22 0.22 0.25 0.21 0.24 0.25 0.69 1.32 1.96 1.59 1.42 1.62 1.42 1.76 2.00 1.99 2.10 2.16 2.15 2.12 1.88 1.66
0.41 0.36 0.34 0.36 0.47 0.49 0.67 1.09 1.98 2.70 2.45 2.28 2.47 2.09 2.34 2.49 2.30 2.31 2.21 1.83 2.02 1.94
0.48 0.54 0.48 0.60 1.08 1.47 1.08 1.38 1.50 2.15 3.04 3.26 3.14 3.18 2.91 2.83 2.44 2.31 2.12 1.90 1.80 1.66
0.88 1.18 1.22 1.23 1.79 2.09 1.74 1.89 2.52 2.37 2.35 2.73 2.77 3.32 3.40 2.93 2.65 2.41 2.12 1.77 1.60 1.31
1.13 1.59 2.07 2.26 2.40 3.14 3.53 2.85 2.89 2.77 2.11 1.94 1.96 2.21 3.07 2.93 2.40 2.22 1.92 1.55 1.37 1.27
1.96 1.82 1.98 1.97 1.98 2.24 2.73 2.43 2.66 2.52 2.24 1.83 1.56 1.51 1.59 2.34 2.45 1.86 1.68 1.61 1.49 1.29
1.46 1.83 1.99 2.16 2.22 2.65 2.51 2.61 2.75 2.93 1.93 1.47 1.30 1.14 1.05 1.05 1.52 1.84 1.49 1.59 1.59 1.43
1.08 1.23 1.23 1.33 1.52 1.63 1.87 2.15 2.57 2.72 2.23 1.50 1.37 1.30 1.10 1.04 1.02 1.36 1.69 1.52 1.46 1.45
0.84 0.82 0.87 0.86 0.91 0.90 0.95 0.99 1.19 1.60 2.24 2.21 1.72 1.90 1.55 1.18 1.05 1.09 1.33 1.98 1.79 1.44
0.71 0.79 0.62 0.60 0.58 0.61 0.67 0.92 0.92 0.86 1.11 1.56 1.57 2.37 2.34 2.28 1.20 1.18 1.27 1.36 1.97 1.85
0.53 0.40 0.38 0.39 0.51 0.53 0.66 0.67 0.65 0.79 0.76 0.76 1.06 1.71 1.96 3.02 2.80 1.75 1.49 1.66 1.63 1.92
0.60 0.62 0.66 0.47 0.44 0.46 0.55 0.66 0.65 0.58 0.50 0.55 0.58 0.97 1.25 1.69 2.19 2.61 2.50 1.76 1.64 1.67
0.87 0.66 0.51 0.43 0.42 0.46 0.45 0.51 0.54 0.67 0.78 0.89 0.62 0.99 1.02 1.51 1.65 1.78 2.08 2.70 2.14 2.15
0.97 0.85 0.74 0.54 0.34 0.35 0.50 0.63 0.67 0.66 0.61 0.71 0.84 1.00 1.19 1.23 1.47 2.02 1.91 1.69 1.93 1.87